FENGYUN 1C DEB, 33701

Orbit data source: Space-Track

FENGYUN 1C DEB, 33701 is space debris in SSO originally from a launch on Mon, 10 May 1999 UTC launched from the Taiyaun Space Center, China (TSC). Fengyun 1C debris stems from the Chinese weather satellite Fengyun-1C, which was intentionally destroyed by a Chinese anti-satellite missile in 2007. This event dramatically increased the amount of space debris, with thousands of trackable fragments posing hazards to satellites and human spaceflight. The Fengyun 1C debris cloud has become a focal point in discussions about space sustainability and the need for international regulations to prevent the creation of new debris.

Loading next visibility...
Identifier
33701, 1999-025DGN
Orbit
SSO
Country
Flag of CNCN / PRC
Related business
Manufacturer
Unknown
Mission
Spacecraft
Bus & Motor
Unknown
Mass
Unknown
Launch date (UTC)
1999-05-10 (27 years ago)
Launch vehicle
Unknown
Launch site
Taiyaun Space Center, China (TSC)
Object type
Payload
Rocket body
Debris
Shape & HBR
Unknown shape, 0.1 m
Radar Cross Section
Small (<0.1 m²)

Expand to show TLE details & history
Last TLE update: 4 days ago

TLE from 4 days ago
0 FENGYUN 1C DEB
1 33701U 99025DGN 26251.29277356  .00001584  00000-0  96200-3 0  9994
2 33701  98.6743 198.0302 0130710 151.2531 209.5922 14.03458617942852
Epoch: 2026-09-08T07:01Z
TLE epoch observation values (Epoch: 2026-09-08T07:01:35.635Z)
Latitude
0.00001°
Longitude
105.27045°
Altitude
967.568 km
Speed
7.326 km/s
True Right ascension
13h 12m 07s
True Declination
0° 00' 00"
Sunlit
Object was in daylight at epoch
Visualization orbit readout
Latitude
Unknown
Longitude
Unknown
Altitude
Unknown
Speed
Unknown
Apparent Right ascension
Unknown
Apparent Declination
Unknown
Sunlit
N/A
Visualization observer readout
Local Sidereal Time
12:59:00
Azimuth
Unknown
Elevation
Unknown
Doppler factor
Unknown
Orbital elements
Apogee altitude
973.88 km
Perigee altitude
784.163 km
Semi-major axis
7,257.159 km
Eccentricity
0.01307
Inclination
98.6743°
RAAN
198.0302°
Arg. of periapsis
151.2531°
True anomaly
208.86293°
Mean anomaly
209.5922°
Eccentric anomaly
209.22653°
Mean motion
3.5107 °/min
Orbital period
102.54 mins
BSTAR
0.000962
Loading maneuver chart data...
Computing Atmospheric mass density...
Loading historical data...
Loading historical data...
Loading historical data...
Loading historical data...
Loading historical data...
Loading historical data...
Loading historical data...

Documentation

Showing up to 5 results
|